| time (UTC) | temp C | wind direction | speed KPH | gust KPH | rain 1hr cm | rain 24hr cm | rain mn cm | humidity % | barometer mb |
| 20260510211046 | 12 | 204 | 3.2 | 11.3 | 0.00 | 0.36 | 0.36 | 72 | 1013.0 |
| 20260510210545 | 12 | 176 | 3.2 | 11.3 | 0.00 | 0.36 | 0.36 | 72 | 1012.8 |
| 20260510210048 | 12 | 215 | 1.6 | 11.3 | 0.00 | 0.36 | 0.36 | 72 | 1012.8 |
| 20260510205545 | 12 | 195 | 4.8 | 14.5 | 0.00 | 0.64 | 0.36 | 71 | 1012.7 |
| 20260510205045 | 12 | 185 | 4.8 | 14.5 | 0.00 | 0.64 | 0.36 | 71 | 1012.7 |
| 20260510204553 | 12 | 238 | 8.0 | 16.1 | 0.00 | 0.64 | 0.36 | 71 | 1012.7 |
| 20260510204045 | 12 | 213 | 8.0 | 16.1 | 0.00 | 0.64 | 0.36 | 71 | 1012.8 |
| 20260510203547 | 12 | 199 | 6.4 | 14.5 | 0.00 | 0.64 | 0.36 | 71 | 1012.6 |
| 20260510203048 | 12 | 177 | 3.2 | 12.9 | 0.00 | 0.64 | 0.36 | 72 | 1012.6 |
| 20260510202549 | 12 | 0 | 0.0 | 12.9 | 0.00 | 0.64 | 0.36 | 72 | 1012.5 |
| 20260510202045 | 12 | 187 | 4.8 | 22.5 | 0.00 | 0.64 | 0.36 | 72 | 1012.5 |
| 20260510201552 | 12 | 202 | 6.4 | 22.5 | 0.00 | 0.64 | 0.36 | 72 | 1012.4 |
| 20260510201045 | 12 | 200 | 8.0 | 22.5 | 0.00 | 0.64 | 0.36 | 72 | 1012.3 |
| 20260510200549 | 12 | 206 | 6.4 | 22.5 | 0.00 | 0.64 | 0.36 | 71 | 1012.3 |
| 20260510200104 | 12 | 188 | 6.4 | 20.9 | 0.00 | 0.64 | 0.36 | 71 | 1012.1 |
| 20260510195547 | 12 | 210 | 6.4 | 16.1 | 0.00 | 0.64 | 0.36 | 71 | 1012.1 |
| 20260510195042 | 12 | 213 | 6.4 | 16.1 | 0.00 | 0.64 | 0.36 | 71 | 1012.0 |
| 20260510194601 | 12 | 195 | 4.8 | 16.1 | 0.00 | 0.64 | 0.36 | 70 | 1012.0 |
| 20260510194045 | 12 | 203 | 8.0 | 16.1 | 0.00 | 0.64 | 0.36 | 70 | 1012.0 |
| 20260510193542 | 12 | 188 | 3.2 | 17.7 | 0.00 | 0.64 | 0.36 | 69 | 1012.0 |
| 20260510193058 | 12 | 180 | 3.2 | 17.7 | 0.00 | 0.64 | 0.36 | 69 | 1012.0 |
| 20260510192542 | 13 | 229 | 6.4 | 17.7 | 0.00 | 0.64 | 0.36 | 68 | 1012.0 |
| 20260510192042 | 13 | 170 | 9.7 | 17.7 | 0.00 | 0.64 | 0.36 | 68 | 1012.0 |
| 20260510191552 | 13 | 234 | 8.0 | 19.3 | 0.00 | 0.64 | 0.36 | 67 | 1011.8 |
| 20260510191044 | 13 | 211 | 6.4 | 19.3 | 0.00 | 0.64 | 0.36 | 67 | 1011.8 |
| 20260510190545 | 13 | 234 | 3.2 | 19.3 | 0.00 | 0.64 | 0.36 | 66 | 1011.9 |
| 20260510190054 | 13 | 199 | 4.8 | 19.3 | 0.00 | 0.64 | 0.36 | 66 | 1011.7 |
| 20260510185545 | 13 | 234 | 6.4 | 20.9 | 0.00 | 0.64 | 0.36 | 66 | 1011.6 |
| 20260510185045 | 13 | 178 | 4.8 | 20.9 | 0.00 | 0.64 | 0.36 | 66 | 1011.5 |
| 20260510184554 | 13 | 158 | 9.7 | 20.9 | 0.00 | 0.64 | 0.36 | 66 | 1011.5 |
| 20260510184045 | 13 | 189 | 6.4 | 17.7 | 0.00 | 0.64 | 0.36 | 65 | 1011.4 |
| 20260510183545 | 13 | 212 | 4.8 | 17.7 | 0.00 | 0.64 | 0.36 | 65 | 1011.4 |
| 20260510183051 | 13 | 222 | 8.0 | 17.7 | 0.00 | 0.64 | 0.36 | 65 | 1011.5 |
| 20260510182546 | 14 | 196 | 4.8 | 20.9 | 0.00 | 0.64 | 0.36 | 64 | 1011.5 |
| 20260510182046 | 14 | 199 | 9.7 | 20.9 | 0.00 | 0.64 | 0.36 | 63 | 1011.4 |
| 20260510181549 | 14 | 268 | 4.8 | 19.3 | 0.00 | 0.64 | 0.36 | 59 | 1011.5 |
| 20260510181045 | 14 | 175 | 8.0 | 19.3 | 0.00 | 0.64 | 0.36 | 59 | 1011.5 |
| 20260510180545 | 14 | 282 | 3.2 | 29.0 | 0.00 | 0.64 | 0.36 | 59 | 1011.5 |
| 20260510180050 | 14 | 187 | 9.7 | 29.0 | 0.00 | 0.64 | 0.36 | 58 | 1011.4 |
| 20260510175542 | 14 | 226 | 4.8 | 16.1 | 0.00 | 0.64 | 0.36 | 59 | 1011.4 |
| 20260510175042 | 14 | 337 | 4.8 | 27.4 | 0.00 | 0.64 | 0.36 | 59 | 1011.5 |
| 20260510174555 | 14 | 274 | 4.8 | 27.4 | 0.00 | 0.64 | 0.36 | 59 | 1011.5 |
| 20260510174049 | 14 | 221 | 6.4 | 24.1 | 0.00 | 0.64 | 0.36 | 58 | 1011.5 |
| 20260510173547 | 15 | 215 | 8.0 | 17.7 | 0.00 | 0.64 | 0.36 | 57 | 1011.4 |
| 20260510173053 | 15 | 298 | 3.2 | 25.7 | 0.00 | 0.64 | 0.36 | 57 | 1011.4 |
| 20260510172545 | 14 | 263 | 4.8 | 25.7 | 0.00 | 0.64 | 0.36 | 57 | 1011.5 |
| 20260510172042 | 14 | 236 | 8.0 | 25.7 | 0.00 | 0.64 | 0.36 | 56 | 1011.5 |
| 20260510171551 | 15 | 0 | 3.2 | 17.7 | 0.00 | 0.64 | 0.36 | 56 | 1011.4 |
| 20260510171048 | 15 | 230 | 8.0 | 20.9 | 0.00 | 0.64 | 0.36 | 55 | 1011.4 |
| 20260510170545 | 15 | 164 | 6.4 | 24.1 | 0.00 | 0.64 | 0.36 | 55 | 1011.5 |
| 20260510170048 | 15 | 173 | 6.4 | 24.1 | 0.00 | 0.64 | 0.36 | 55 | 1011.3 |
| 20260510165544 | 15 | 235 | 8.0 | 24.1 | 0.00 | 0.84 | 0.36 | 54 | 1011.5 |
| 20260510165045 | 15 | 53 | 6.4 | 22.5 | 0.00 | 0.84 | 0.36 | 54 | 1011.4 |
| 20260510164555 | 15 | 125 | 4.8 | 22.5 | 0.00 | 0.84 | 0.36 | 54 | 1011.4 |
| 20260510164045 | 15 | 290 | 3.2 | 16.1 | 0.00 | 0.84 | 0.36 | 54 | 1011.5 |
| 20260510163546 | 15 | 254 | 4.8 | 16.1 | 0.00 | 0.84 | 0.36 | 54 | 1011.4 |
| 20260510163052 | 15 | 174 | 3.2 | 22.5 | 0.00 | 0.84 | 0.36 | 54 | 1011.3 |
| 20260510162545 | 15 | 336 | 4.8 | 22.5 | 0.00 | 0.84 | 0.36 | 54 | 1011.3 |
| 20260510162043 | 15 | 355 | 4.8 | 20.9 | 0.00 | 0.84 | 0.36 | 53 | 1011.4 |
| 20260510161553 | 15 | 222 | 6.4 | 20.9 | 0.00 | 0.84 | 0.36 | 55 | 1011.5 |
| 20260510161046 | 15 | 205 | 6.4 | 20.9 | 0.00 | 0.84 | 0.36 | 55 | 1011.4 |
| 20260510160543 | 14 | 249 | 6.4 | 16.1 | 0.00 | 0.84 | 0.36 | 56 | 1011.6 |
| 20260510160055 | 14 | 201 | 4.8 | 17.7 | 0.00 | 0.84 | 0.36 | 56 | 1011.5 |
| 20260510155542 | 15 | 228 | 6.4 | 17.7 | 0.00 | 0.84 | 0.36 | 57 | 1011.5 |
| 20260510155045 | 15 | 273 | 6.4 | 24.1 | 0.00 | 0.84 | 0.36 | 58 | 1011.4 |
| 20260510154555 | 15 | 224 | 6.4 | 24.1 | 0.00 | 0.84 | 0.36 | 58 | 1011.5 |
| 20260510154046 | 15 | 202 | 6.4 | 19.3 | 0.00 | 0.84 | 0.36 | 59 | 1011.4 |
| 20260510153543 | 15 | 284 | 0.0 | 17.7 | 0.00 | 0.84 | 0.36 | 61 | 1011.4 |
| 20260510153054 | 14 | 241 | 6.4 | 24.1 | 0.00 | 0.84 | 0.36 | 63 | 1011.5 |
| 20260510152543 | 13 | 232 | 6.4 | 24.1 | 0.00 | 0.84 | 0.36 | 62 | 1011.4 |
| 20260510152045 | 13 | 233 | 11.3 | 24.1 | 0.00 | 0.84 | 0.36 | 61 | 1011.5 |
| 20260510151554 | 13 | 243 | 11.3 | 22.5 | 0.00 | 0.84 | 0.36 | 61 | 1011.7 |
| 20260510151045 | 14 | 233 | 6.4 | 24.1 | 0.00 | 0.84 | 0.36 | 61 | 1011.6 |
| 20260510150545 | 14 | 265 | 4.8 | 24.1 | 0.00 | 0.84 | 0.36 | 61 | 1011.7 |
| 20260510150121 | 13 | 224 | 6.4 | 22.5 | 0.00 | 0.84 | 0.36 | 60 | 1011.7 |
| 20260510145548 | 13 | 238 | 4.8 | 24.1 | 0.00 | 0.89 | 0.36 | 64 | 1011.9 |
| 20260510145043 | 13 | 236 | 6.4 | 24.1 | 0.00 | 0.89 | 0.36 | 67 | 1011.9 |
| 20260510144610 | 13 | 251 | 6.4 | 20.9 | 0.00 | 0.89 | 0.36 | 68 | 1012.0 |
| 20260510144044 | 13 | 223 | 3.2 | 20.9 | 0.00 | 0.89 | 0.36 | 69 | 1012.1 |
| 20260510143542 | 13 | 209 | 3.2 | 27.4 | 0.00 | 0.89 | 0.36 | 70 | 1012.1 |
| 20260510143053 | 12 | 279 | 4.8 | 27.4 | 0.00 | 0.89 | 0.36 | 71 | 1012.0 |
| 20260510142541 | 12 | 199 | 3.2 | 25.7 | 0.00 | 0.89 | 0.36 | 72 | 1012.2 |
| 20260510142046 | 12 | 309 | 4.8 | 25.7 | 0.00 | 0.89 | 0.36 | 71 | 1012.1 |
| 20260510141548 | 12 | 230 | 4.8 | 16.1 | 0.00 | 0.89 | 0.36 | 71 | 1012.1 |
| 20260510141046 | 12 | 270 | 4.8 | 17.7 | 0.00 | 0.89 | 0.36 | 70 | 1012.2 |
| 20260510140542 | 12 | 9 | 6.4 | 17.7 | 0.00 | 0.89 | 0.36 | 70 | 1012.2 |
| 20260510140053 | 12 | 24 | 4.8 | 25.7 | 0.00 | 0.89 | 0.36 | 71 | 1012.1 |
| 20260510135545 | 12 | 232 | 6.4 | 25.7 | 0.00 | 0.89 | 0.36 | 71 | 1012.0 |
| 20260510135046 | 12 | 305 | 3.2 | 19.3 | 0.00 | 0.89 | 0.36 | 73 | 1012.1 |
| 20260510134605 | 12 | 346 | 4.8 | 19.3 | 0.00 | 0.89 | 0.36 | 76 | 1012.2 |
| 20260510134042 | 12 | 239 | 4.8 | 22.5 | 0.00 | 0.89 | 0.36 | 75 | 1012.0 |
| 20260510133545 | 12 | 278 | 3.2 | 22.5 | 0.00 | 0.89 | 0.36 | 74 | 1012.1 |
| 20260510133054 | 12 | 288 | 1.6 | 19.3 | 0.00 | 0.89 | 0.36 | 74 | 1012.0 |
| 20260510132545 | 12 | 294 | 4.8 | 19.3 | 0.00 | 0.89 | 0.36 | 73 | 1012.0 |
| 20260510132047 | 12 | 284 | 3.2 | 16.1 | 0.00 | 0.89 | 0.36 | 72 | 1011.9 |
| 20260510131557 | 13 | 283 | 3.2 | 16.1 | 0.00 | 0.89 | 0.36 | 73 | 1011.8 |
| 20260510131045 | 13 | 226 | 6.4 | 16.1 | 0.00 | 0.89 | 0.36 | 72 | 1011.8 |
| 20260510130542 | 13 | 297 | 3.2 | 22.5 | 0.00 | 0.89 | 0.36 | 72 | 1011.6 |
| 20260510130053 | 13 | 239 | 8.0 | 22.5 | 0.00 | 0.89 | 0.36 | 72 | 1011.8 |
| 20260510125545 | 13 | 227 | 9.7 | 22.5 | 0.00 | 1.12 | 0.36 | 72 | 1011.8 |
| 20260510125045 | 13 | 183 | 6.4 | 19.3 | 0.00 | 1.12 | 0.36 | 73 | 1011.9 |
| 20260510124600 | 12 | 240 | 3.2 | 17.7 | 0.00 | 1.12 | 0.36 | 75 | 1011.8 |
| 20260510124045 | 12 | 284 | 1.6 | 17.7 | 0.00 | 1.12 | 0.36 | 76 | 1011.9 |
| 20260510123545 | 12 | 220 | 3.2 | 16.1 | 0.00 | 1.12 | 0.36 | 76 | 1012.0 |
| 20260510123052 | 12 | 203 | 4.8 | 20.9 | 0.00 | 1.12 | 0.36 | 76 | 1012.1 |
| 20260510122545 | 12 | 235 | 3.2 | 20.9 | 0.00 | 1.12 | 0.36 | 77 | 1012.2 |
| 20260510122045 | 12 | 192 | 9.7 | 20.9 | 0.03 | 1.12 | 0.36 | 77 | 1012.2 |
| 20260510121553 | 12 | 283 | 3.2 | 17.7 | 0.03 | 1.12 | 0.36 | 81 | 1012.1 |
| 20260510121045 | 12 | 329 | 3.2 | 14.5 | 0.03 | 1.12 | 0.36 | 83 | 1011.9 |
| 20260510120545 | 11 | 253 | 1.6 | 19.3 | 0.03 | 1.12 | 0.36 | 82 | 1011.9 |
| 20260510120051 | 11 | 240 | 11.3 | 19.3 | 0.03 | 1.12 | 0.36 | 80 | 1012.1 |
| 20260510115545 | 11 | 224 | 4.8 | 14.5 | 0.03 | 1.12 | 0.36 | 81 | 1012.1 |
| 20260510115045 | 11 | 243 | 3.2 | 20.9 | 0.03 | 1.12 | 0.36 | 82 | 1012.1 |
| 20260510114612 | 11 | 198 | 3.2 | 20.9 | 0.03 | 1.12 | 0.36 | 84 | 1012.2 |
| 20260510114041 | 11 | 243 | 4.8 | 16.1 | 0.05 | 1.12 | 0.36 | 85 | 1012.3 |
| 20260510113544 | 11 | 241 | 0.0 | 16.1 | 0.05 | 1.12 | 0.36 | 86 | 1012.4 |
| 20260510113056 | 10 | 285 | 1.6 | 16.1 | 0.05 | 1.12 | 0.36 | 85 | 1012.4 |
| 20260510112543 | 10 | 249 | 3.2 | 24.1 | 0.03 | 1.12 | 0.33 | 85 | 1012.6 |
| 20260510112043 | 10 | 289 | 4.8 | 24.1 | 0.08 | 1.09 | 0.30 | 84 | 1012.7 |
| 20260510111553 | 11 | 213 | 3.2 | 20.9 | 0.23 | 1.09 | 0.30 | 85 | 1012.5 |
| 20260510111045 | 11 | 301 | 6.4 | 20.9 | 0.23 | 1.09 | 0.30 | 85 | 1012.4 |
| 20260510110545 | 11 | 220 | 1.6 | 17.7 | 0.23 | 1.09 | 0.30 | 85 | 1012.3 |
| 20260510110056 | 11 | 285 | 3.2 | 12.9 | 0.23 | 1.09 | 0.30 | 85 | 1012.2 |
| 20260510105548 | 10 | 244 | 3.2 | 12.9 | 0.23 | 1.32 | 0.30 | 85 | 1012.0 |
| 20260510105045 | 10 | 262 | 3.2 | 20.9 | 0.23 | 1.32 | 0.30 | 86 | 1012.0 |
| 20260510104600 | 10 | 241 | 3.2 | 20.9 | 0.23 | 1.32 | 0.30 | 85 | 1012.2 |
| 20260510104045 | 11 | 184 | 3.2 | 19.3 | 0.20 | 1.30 | 0.28 | 85 | 1012.2 |
| 20260510103545 | 11 | 199 | 4.8 | 24.1 | 0.20 | 1.30 | 0.28 | 84 | 1012.3 |
| 20260510103052 | 11 | 145 | 9.7 | 24.1 | 0.20 | 1.30 | 0.28 | 83 | 1012.1 |
| 20260510102547 | 12 | 236 | 9.7 | 19.3 | 0.20 | 1.30 | 0.28 | 80 | 1012.0 |
| 20260510102045 | 13 | 209 | 6.4 | 14.5 | 0.10 | 1.22 | 0.18 | 77 | 1011.7 |
| 20260510101559 | 13 | 236 | 4.8 | 22.5 | 0.00 | 1.09 | 0.08 | 78 | 1011.3 |
| 20260510101042 | 13 | 201 | 6.4 | 24.1 | 0.00 | 1.09 | 0.08 | 77 | 1011.3 |
| 20260510100543 | 13 | 186 | 11.3 | 25.7 | 0.00 | 1.09 | 0.08 | 77 | 1011.3 |
| 20260510095543 | 12 | 222 | 12.9 | 24.1 | 0.00 | 1.09 | 0.08 | 75 | 1011.4 |
| 20260510095045 | 13 | 166 | 11.3 | 27.4 | 0.00 | 1.09 | 0.08 | 77 | 1011.4 |
| 20260510094603 | 12 | 170 | 12.9 | 27.4 | 0.00 | 1.09 | 0.08 | 78 | 1011.4 |
| 20260510094042 | 12 | 191 | 9.7 | 27.4 | 0.00 | 1.09 | 0.08 | 77 | 1011.3 |
| 20260510093545 | 12 | 160 | 9.7 | 29.0 | 0.00 | 1.09 | 0.08 | 77 | 1011.5 |
| 20260510093100 | 12 | 147 | 12.9 | 29.0 | 0.00 | 1.09 | 0.08 | 77 | 1011.6 |
| 20260510092541 | 12 | 186 | 11.3 | 25.7 | 0.00 | 1.09 | 0.08 | 77 | 1011.6 |
| 20260510092045 | 12 | 181 | 9.7 | 30.6 | 0.00 | 1.09 | 0.08 | 80 | 1011.6 |
| 20260510091554 | 12 | 170 | 11.3 | 30.6 | 0.00 | 1.09 | 0.08 | 81 | 1011.6 |
| 20260510091045 | 12 | 180 | 11.3 | 24.1 | 0.00 | 1.09 | 0.08 | 81 | 1011.6 |
| 20260510090545 | 12 | 184 | 11.3 | 24.1 | 0.00 | 1.09 | 0.08 | 80 | 1011.6 |
| 20260510090052 | 12 | 126 | 9.7 | 22.5 | 0.00 | 1.09 | 0.08 | 83 | 1011.6 |
| 20260510085544 | 12 | 165 | 9.7 | 22.5 | 0.00 | 1.09 | 0.08 | 84 | 1011.6 |
| 20260510085045 | 11 | 222 | 8.0 | 20.9 | 0.00 | 1.09 | 0.08 | 85 | 1011.7 |
| 20260510084548 | 11 | 159 | 9.7 | 20.9 | 0.00 | 1.09 | 0.08 | 86 | 1011.6 |
| 20260510084046 | 11 | 180 | 8.0 | 20.9 | 0.00 | 1.09 | 0.08 | 86 | 1011.7 |
| 20260510083545 | 11 | 135 | 11.3 | 20.9 | 0.00 | 1.09 | 0.08 | 86 | 1011.6 |
| 20260510083051 | 11 | 145 | 8.0 | 24.1 | 0.00 | 1.09 | 0.08 | 86 | 1011.6 |
| 20260510082544 | 11 | 170 | 9.7 | 24.1 | 0.00 | 1.09 | 0.08 | 86 | 1011.7 |
| 20260510082042 | 11 | 147 | 12.9 | 24.1 | 0.00 | 1.09 | 0.08 | 85 | 1011.8 |
| 20260510081549 | 11 | 182 | 9.7 | 24.1 | 0.00 | 1.09 | 0.08 | 85 | 1011.9 |
| 20260510081046 | 11 | 200 | 6.4 | 19.3 | 0.00 | 1.09 | 0.08 | 86 | 1011.8 |
| 20260510080543 | 11 | 188 | 11.3 | 19.3 | 0.00 | 1.09 | 0.08 | 86 | 1011.8 |
| 20260510080054 | 11 | 199 | 8.0 | 25.7 | 0.00 | 1.09 | 0.08 | 86 | 1011.6 |
| 20260510075545 | 11 | 173 | 9.7 | 25.7 | 0.00 | 1.09 | 0.08 | 86 | 1011.7 |
| 20260510075045 | 10 | 221 | 9.7 | 17.7 | 0.00 | 1.09 | 0.08 | 86 | 1012.0 |
| 20260510074552 | 11 | 178 | 11.3 | 24.1 | 0.00 | 1.09 | 0.08 | 86 | 1012.1 |
| 20260510074045 | 10 | 180 | 8.0 | 24.1 | 0.00 | 1.09 | 0.08 | 86 | 1012.0 |
| 20260510073548 | 10 | 166 | 8.0 | 16.1 | 0.00 | 1.09 | 0.08 | 86 | 1012.1 |
| 20260510073056 | 10 | 146 | 6.4 | 16.1 | 0.00 | 1.09 | 0.08 | 86 | 1011.9 |
| 20260510072548 | 10 | 183 | 8.0 | 16.1 | 0.00 | 1.09 | 0.08 | 86 | 1011.9 |
| 20260510072045 | 10 | 179 | 8.0 | 16.1 | 0.00 | 1.09 | 0.08 | 85 | 1012.0 |
| 20260510071551 | 10 | 191 | 6.4 | 16.1 | 0.00 | 1.09 | 0.08 | 85 | 1011.9 |
| 20260510071045 | 10 | 193 | 8.0 | 16.1 | 0.00 | 1.09 | 0.08 | 84 | 1011.9 |
| 20260510070545 | 10 | 222 | 8.0 | 16.1 | 0.00 | 1.07 | 0.05 | 84 | 1011.8 |
| 20260510070105 | 10 | 168 | 8.0 | 16.1 | 0.00 | 1.07 | 0.05 | 84 | 1011.8 |
| 20260510065547 | 10 | 178 | 6.4 | 17.7 | 0.00 | 1.07 | 0.05 | 84 | 1011.9 |
| 20260510065047 | 10 | 179 | 9.7 | 17.7 | 0.00 | 1.07 | 0.05 | 84 | 1011.8 |
| 20260510064600 | 10 | 150 | 8.0 | 16.1 | 0.00 | 1.07 | 0.05 | 84 | 1011.8 |
| 20260510064048 | 10 | 166 | 6.4 | 16.1 | 0.00 | 1.07 | 0.05 | 84 | 1011.9 |
| 20260510063545 | 10 | 186 | 4.8 | 14.5 | 0.00 | 1.07 | 0.05 | 85 | 1011.8 |
| 20260510063059 | 10 | 188 | 4.8 | 14.5 | 0.00 | 1.07 | 0.05 | 85 | 1011.7 |
| 20260510062547 | 10 | 171 | 8.0 | 14.5 | 0.00 | 1.07 | 0.05 | 85 | 1011.6 |
| 20260510062042 | 10 | 178 | 6.4 | 14.5 | 0.00 | 1.07 | 0.05 | 86 | 1011.6 |
| 20260510061551 | 10 | 183 | 4.8 | 17.7 | 0.00 | 1.07 | 0.05 | 86 | 1011.5 |
| 20260510061042 | 10 | 168 | 8.0 | 17.7 | 0.00 | 1.07 | 0.05 | 86 | 1011.6 |
| 20260510060545 | 10 | 189 | 8.0 | 14.5 | 0.00 | 1.07 | 0.05 | 86 | 1011.6 |
| 20260510060059 | 10 | 155 | 4.8 | 12.9 | 0.00 | 1.07 | 0.05 | 86 | 1011.6 |
| 20260510055545 | 10 | 172 | 6.4 | 16.1 | 0.00 | 1.07 | 0.05 | 86 | 1011.5 |
| 20260510055046 | 10 | 187 | 6.4 | 17.7 | 0.00 | 1.07 | 0.05 | 86 | 1011.5 |
| 20260510054600 | 10 | 184 | 9.7 | 17.7 | 0.00 | 1.07 | 0.05 | 86 | 1011.5 |
| 20260510054044 | 10 | 187 | 4.8 | 12.9 | 0.00 | 1.07 | 0.05 | 86 | 1011.6 |
| 20260510053542 | 10 | 146 | 6.4 | 12.9 | 0.00 | 1.07 | 0.05 | 86 | 1011.4 |
| 20260510053054 | 10 | 149 | 4.8 | 14.5 | 0.00 | 1.07 | 0.05 | 86 | 1011.5 |
| 20260510052545 | 10 | 187 | 8.0 | 16.1 | 0.00 | 1.07 | 0.05 | 86 | 1011.5 |
| 20260510052042 | 10 | 168 | 6.4 | 16.1 | 0.00 | 1.07 | 0.05 | 86 | 1011.5 |
| 20260510051555 | 10 | 176 | 8.0 | 14.5 | 0.00 | 1.07 | 0.05 | 87 | 1011.5 |
| 20260510051045 | 10 | 179 | 4.8 | 14.5 | 0.00 | 1.07 | 0.05 | 87 | 1011.4 |
| 20260510050542 | 10 | 199 | 6.4 | 14.5 | 0.00 | 1.07 | 0.05 | 87 | 1011.3 |
| 20260510050053 | 10 | 166 | 4.8 | 9.7 | 0.00 | 1.07 | 0.05 | 87 | 1011.3 |
| 20260510045542 | 10 | 137 | 3.2 | 9.7 | 0.00 | 1.07 | 0.05 | 87 | 1011.4 |
| 20260510045045 | 10 | 124 | 4.8 | 11.3 | 0.00 | 1.07 | 0.05 | 87 | 1011.3 |
| 20260510044611 | 10 | 184 | 6.4 | 11.3 | 0.00 | 1.07 | 0.05 | 87 | 1011.4 |
| 20260510044047 | 10 | 210 | 6.4 | 11.3 | 0.00 | 1.07 | 0.05 | 87 | 1011.3 |
| 20260510043545 | 10 | 179 | 4.8 | 12.9 | 0.00 | 1.07 | 0.05 | 87 | 1011.4 |
| 20260510043054 | 10 | 168 | 4.8 | 12.9 | 0.00 | 1.07 | 0.05 | 87 | 1011.3 |
| 20260510042544 | 10 | 201 | 6.4 | 12.9 | 0.00 | 1.07 | 0.05 | 87 | 1011.4 |
| 20260510042044 | 10 | 194 | 4.8 | 12.9 | 0.00 | 1.07 | 0.05 | 87 | 1011.4 |
| 20260510041557 | 10 | 178 | 6.4 | 14.5 | 0.00 | 1.07 | 0.05 | 86 | 1011.4 |
| 20260510041047 | 10 | 173 | 8.0 | 14.5 | 0.00 | 1.07 | 0.05 | 86 | 1011.5 |
| 20260510040549 | 10 | 159 | 4.8 | 14.5 | 0.00 | 1.07 | 0.05 | 86 | 1011.5 |
| 20260510040049 | 10 | 186 | 4.8 | 14.5 | 0.00 | 1.07 | 0.05 | 86 | 1011.3 |
| 20260510035544 | 10 | 178 | 4.8 | 11.3 | 0.00 | 1.07 | 0.05 | 86 | 1011.3 |
| 20260510035047 | 10 | 184 | 4.8 | 11.3 | 0.00 | 1.07 | 0.05 | 86 | 1011.3 |
| 20260510034550 | 10 | 151 | 4.8 | 11.3 | 0.00 | 1.07 | 0.05 | 86 | 1011.4 |
| 20260510034043 | 10 | 166 | 4.8 | 12.9 | 0.00 | 1.07 | 0.05 | 86 | 1011.4 |
| 20260510033545 | 10 | 131 | 4.8 | 12.9 | 0.00 | 1.07 | 0.05 | 86 | 1011.4 |
| 20260510033115 | 10 | 165 | 3.2 | 11.3 | 0.00 | 1.07 | 0.05 | 86 | 1011.4 |
| 20260510032546 | 10 | 160 | 4.8 | 11.3 | 0.00 | 1.07 | 0.05 | 86 | 1011.5 |
| 20260510032042 | 10 | 165 | 3.2 | 11.3 | 0.00 | 1.07 | 0.05 | 86 | 1011.6 |
| 20260510031605 | 10 | 180 | 4.8 | 14.5 | 0.00 | 1.07 | 0.05 | 86 | 1011.7 |
| 20260510031043 | 10 | 182 | 6.4 | 14.5 | 0.00 | 1.07 | 0.05 | 86 | 1011.7 |
| 20260510030545 | 10 | 184 | 3.2 | 14.5 | 0.00 | 1.07 | 0.05 | 87 | 1011.8 |
| 20260510030054 | 10 | 190 | 6.4 | 14.5 | 0.00 | 1.07 | 0.05 | 87 | 1011.8 |
| 20260510025543 | 10 | 180 | 4.8 | 9.7 | 0.00 | 1.07 | 0.05 | 87 | 1011.8 |
| 20260510025042 | 10 | 165 | 4.8 | 9.7 | 0.00 | 1.07 | 0.05 | 87 | 1012.0 |
| 20260510024552 | 10 | 196 | 1.6 | 6.4 | 0.00 | 1.07 | 0.05 | 87 | 1012.1 |
| 20260510024044 | 10 | 0 | 1.6 | 4.8 | 0.00 | 1.07 | 0.05 | 87 | 1012.0 |
| 20260510023544 | 10 | 0 | 0.0 | 6.4 | 0.00 | 1.07 | 0.05 | 87 | 1012.1 |
| 20260510023051 | 10 | 218 | 1.6 | 6.4 | 0.00 | 1.07 | 0.05 | 87 | 1012.1 |
| 20260510022547 | 10 | 208 | 3.2 | 6.4 | 0.00 | 1.07 | 0.05 | 87 | 1012.1 |
| 20260510022043 | 10 | 218 | 1.6 | 6.4 | 0.00 | 1.07 | 0.05 | 87 | 1012.0 |
| 20260510021551 | 10 | 203 | 3.2 | 8.0 | 0.00 | 1.07 | 0.05 | 87 | 1012.0 |
| 20260510021043 | 10 | 0 | 0.0 | 8.0 | 0.00 | 1.07 | 0.05 | 87 | 1011.9 |
| 20260510020548 | 10 | 186 | 1.6 | 6.4 | 0.00 | 1.07 | 0.05 | 87 | 1012.0 |
| 20260510020052 | 10 | 0 | 1.6 | 6.4 | 0.00 | 1.07 | 0.05 | 87 | 1012.1 |
| 20260510015542 | 10 | 0 | 0.0 | 11.3 | 0.00 | 1.07 | 0.05 | 87 | 1012.0 |
| 20260510015048 | 10 | 248 | 1.6 | 11.3 | 0.00 | 1.07 | 0.05 | 87 | 1012.1 |
| 20260510014606 | 10 | 276 | 0.0 | 9.7 | 0.00 | 1.07 | 0.05 | 87 | 1012.0 |
| 20260510014045 | 10 | 284 | 1.6 | 9.7 | 0.00 | 1.07 | 0.05 | 87 | 1012.0 |
| 20260510013542 | 10 | 228 | 0.0 | 8.0 | 0.00 | 1.07 | 0.05 | 87 | 1012.0 |
| 20260510013049 | 10 | 211 | 1.6 | 8.0 | 0.00 | 1.07 | 0.05 | 87 | 1012.0 |
| 20260510012545 | 10 | 0 | 3.2 | 8.0 | 0.00 | 1.07 | 0.05 | 87 | 1012.0 |
| 20260510012045 | 10 | 0 | 0.0 | 11.3 | 0.00 | 1.07 | 0.05 | 87 | 1012.1 |
| 20260510011559 | 10 | 251 | 1.6 | 11.3 | 0.00 | 1.07 | 0.05 | 87 | 1012.1 |
| 20260510011044 | 10 | 213 | 4.8 | 12.9 | 0.00 | 1.07 | 0.05 | 87 | 1012.2 |
| 20260510010544 | 10 | 221 | 4.8 | 14.5 | 0.00 | 1.07 | 0.05 | 87 | 1012.2 |
| 20260510010100 | 10 | 191 | 4.8 | 14.5 | 0.00 | 1.07 | 0.05 | 87 | 1012.1 |
| 20260510005544 | 10 | 250 | 4.8 | 12.9 | 0.00 | 1.07 | 0.05 | 87 | 1012.2 |
| 20260510005046 | 10 | 207 | 1.6 | 12.9 | 0.00 | 1.07 | 0.05 | 87 | 1012.1 |
| 20260510004556 | 10 | 163 | 4.8 | 12.9 | 0.00 | 1.07 | 0.05 | 87 | 1012.1 |
| 20260510004045 | 10 | 226 | 4.8 | 12.9 | 0.00 | 1.07 | 0.05 | 87 | 1012.3 |
| 20260510003542 | 10 | 203 | 3.2 | 12.9 | 0.00 | 1.07 | 0.05 | 87 | 1012.3 |
| 20260510003100 | 10 | 222 | 4.8 | 11.3 | 0.00 | 1.07 | 0.05 | 87 | 1012.3 |
| 20260510002545 | 10 | 222 | 4.8 | 11.3 | 0.00 | 1.07 | 0.05 | 87 | 1012.4 |
| 20260510002042 | 10 | 209 | 1.6 | 11.3 | 0.00 | 1.07 | 0.05 | 87 | 1012.4 |
| 20260510001554 | 10 | 239 | 1.6 | 8.0 | 0.00 | 1.07 | 0.05 | 87 | 1012.3 |
| 20260510001043 | 10 | 253 | 1.6 | 8.0 | 0.00 | 1.07 | 0.05 | 87 | 1012.4 |
| 20260510000544 | 10 | 0 | 0.0 | 11.3 | 0.00 | 1.07 | 0.05 | 87 | 1012.4 |
| 20260510000057 | 10 | 0 | 3.2 | 11.3 | 0.00 | 1.07 | 0.05 | 87 | 1012.4 |
| 20260509235547 | 10 | 244 | 0.0 | 8.0 | 0.00 | 1.07 | 0.05 | 88 | 1012.5 |
| 20260509235042 | 10 | 188 | 3.2 | 8.0 | 0.03 | 1.07 | 0.05 | 87 | 1012.4 |
| 20260509234605 | 10 | 191 | 0.0 | 6.4 | 0.05 | 1.07 | 0.05 | 87 | 1012.5 |
| 20260509234042 | 10 | 0 | 0.0 | 14.5 | 0.05 | 1.07 | 0.05 | 87 | 1012.5 |
| 20260509233547 | 10 | 0 | 3.2 | 16.1 | 0.05 | 1.07 | 0.05 | 87 | 1012.5 |
| 20260509233050 | 10 | 220 | 6.4 | 16.1 | 0.05 | 1.07 | 0.05 | 87 | 1012.6 |
| 20260509232545 | 10 | 0 | 0.0 | 6.4 | 0.05 | 1.07 | 0.05 | 87 | 1012.5 |
| 20260509232043 | 10 | 191 | 1.6 | 9.7 | 0.05 | 1.07 | 0.05 | 87 | 1012.6 |
| 20260509231552 | 10 | 0 | 1.6 | 14.5 | 0.05 | 1.07 | 0.05 | 87 | 1012.6 |
| 20260509231042 | 10 | 215 | 4.8 | 14.5 | 0.05 | 1.07 | 0.05 | 87 | 1012.6 |
| 20260509230545 | 10 | 205 | 6.4 | 12.9 | 0.05 | 1.07 | 0.05 | 86 | 1012.7 |
| 20260509230056 | 10 | 211 | 3.2 | 22.5 | 0.03 | 1.04 | 0.03 | 86 | 1012.7 |
| 20260509225548 | 10 | 0 | 4.8 | 22.5 | 0.03 | 1.04 | 0.03 | 86 | 1012.7 |
| 20260509225047 | 10 | 71 | 3.2 | 11.3 | 0.00 | 1.02 | 0.00 | 86 | 1012.6 |
| 20260509224547 | 10 | 276 | 1.6 | 17.7 | 0.00 | 1.02 | 0.00 | 86 | 1012.5 |
| 20260509224045 | 10 | 0 | 1.6 | 17.7 | 0.00 | 1.02 | 0.00 | 85 | 1012.4 |
| 20260509223544 | 10 | 16 | 0.0 | 14.5 | 0.00 | 1.02 | 0.00 | 86 | 1012.4 |
| 20260509223101 | 10 | 0 | 1.6 | 14.5 | 0.00 | 1.02 | 0.00 | 85 | 1012.4 |
| 20260509222542 | 10 | 0 | 0.0 | 4.8 | 0.00 | 1.02 | 0.00 | 86 | 1012.3 |
| 20260509222042 | 10 | 229 | 0.0 | 6.4 | 0.00 | 1.02 | 0.00 | 86 | 1012.3 |
| 20260509221551 | 10 | 0 | 1.6 | 6.4 | 0.00 | 1.02 | 0.00 | 86 | 1012.3 |
| 20260509221045 | 10 | 0 | 1.6 | 6.4 | 0.00 | 1.02 | 0.00 | 86 | 1012.3 |
| 20260509220543 | 10 | 0 | 3.2 | 6.4 | 0.00 | 1.02 | 0.00 | 86 | 1012.1 |
| 20260509215544 | 10 | 249 | 0.0 | 4.8 | 0.03 | 1.02 | 1.02 | 87 | 1011.9 |
| 20260509215044 | 10 | 0 | 0.0 | 4.8 | 0.05 | 1.02 | 1.02 | 87 | 1011.9 |
| 20260509214547 | 10 | 270 | 0.0 | 4.8 | 0.08 | 1.02 | 1.02 | 87 | 1011.9 |
| 20260509214043 | 10 | 0 | 0.0 | 4.8 | 0.10 | 1.02 | 1.02 | 87 | 1012.0 |
| 20260509213542 | 10 | 303 | 0.0 | 4.8 | 0.13 | 1.02 | 1.02 | 88 | 1012.0 |
| 20260509213052 | 10 | 0 | 0.0 | 4.8 | 0.18 | 1.02 | 1.02 | 87 | 1011.9 |
| 20260509212544 | 10 | 0 | 0.0 | 4.8 | 0.28 | 1.02 | 1.02 | 87 | 1011.8 |
| 20260509212045 | 10 | 297 | 0.0 | 4.8 | 0.28 | 1.02 | 1.02 | 87 | 1011.9 |
| 20260509211553 | 10 | 0 | 0.0 | 12.9 | 0.28 | 1.02 | 1.02 | 87 | 1011.9 |